| time (UTC) | temp F | wind direction | speed MPH | gust MPH | rain 1hr in | rain 24hr in | rain mn in | humidity % | barometer mb |
| 20260906232612 | 75 | 163 | 6.0 | 8.0 | 0.00 | 0.00 | 0.00 | 33 | 1016.9 |
| 20260906231622 | 75 | 163 | 5.0 | 11.0 | 0.00 | 0.00 | 0.00 | 33 | 1017.0 |
| 20260906230631 | 75 | 199 | 5.0 | 11.0 | 0.00 | 0.00 | 0.00 | 34 | 1017.1 |
| 20260906225616 | 75 | 183 | 8.0 | 14.0 | 0.00 | 0.00 | 0.00 | 33 | 1017.2 |
| 20260906224626 | 75 | 169 | 9.0 | 12.0 | 0.00 | 0.00 | 0.00 | 33 | 1017.4 |
| 20260906223637 | 75 | 199 | 7.0 | 11.0 | 0.00 | 0.00 | 0.00 | 32 | 1017.4 |
| 20260906222626 | 76 | 159 | 7.0 | 10.0 | 0.00 | 0.00 | 0.00 | 33 | 1017.4 |
| 20260906221620 | 76 | 181 | 8.0 | 15.0 | 0.00 | 0.00 | 0.00 | 32 | 1017.4 |
| 20260906220631 | 76 | 202 | 8.0 | 12.0 | 0.00 | 0.00 | 0.00 | 31 | 1017.6 |
| 20260906215614 | 76 | 217 | 7.0 | 17.0 | 0.00 | 0.00 | 0.00 | 31 | 1017.6 |
| 20260906214622 | 76 | 213 | 5.0 | 12.0 | 0.00 | 0.00 | 0.00 | 30 | 1017.6 |
| 20260906213616 | 76 | 192 | 7.0 | 14.0 | 0.00 | 0.00 | 0.00 | 32 | 1017.6 |
| 20260906212646 | 76 | 168 | 9.0 | 19.0 | 0.00 | 0.00 | 0.00 | 31 | 1017.7 |
| 20260906211637 | 76 | 188 | 11.0 | 18.0 | 0.00 | 0.00 | 0.00 | 32 | 1017.9 |
| 20260906210625 | 77 | 192 | 8.0 | 15.0 | 0.00 | 0.00 | 0.00 | 32 | 1017.8 |
| 20260906205649 | 77 | 157 | 7.0 | 16.0 | 0.00 | 0.00 | 0.00 | 32 | 1017.7 |
| 20260906204622 | 78 | 211 | 12.0 | 21.0 | 0.00 | 0.00 | 0.00 | 30 | 1018.0 |
| 20260906203612 | 78 | 156 | 10.0 | 17.0 | 0.00 | 0.00 | 0.00 | 30 | 1018.0 |
| 20260906202621 | 76 | 198 | 14.0 | 24.0 | 0.00 | 0.00 | 0.00 | 29 | 1018.1 |
| 20260906201615 | 78 | 174 | 13.0 | 20.0 | 0.00 | 0.00 | 0.00 | 28 | 1018.1 |
| 20260906200615 | 78 | 172 | 10.0 | 21.0 | 0.00 | 0.00 | 0.00 | 28 | 1018.4 |
| 20260906195615 | 77 | 196 | 11.0 | 20.0 | 0.00 | 0.00 | 0.00 | 28 | 1018.7 |
| 20260906194626 | 76 | 134 | 10.0 | 19.0 | 0.00 | 0.00 | 0.00 | 30 | 1018.6 |
| 20260906193619 | 76 | 172 | 9.0 | 20.0 | 0.00 | 0.00 | 0.00 | 30 | 1019.0 |
| 20260906192629 | 76 | 164 | 8.0 | 12.0 | 0.00 | 0.00 | 0.00 | 29 | 1018.8 |
| 20260906191620 | 75 | 216 | 5.0 | 14.0 | 0.00 | 0.00 | 0.00 | 30 | 1018.9 |
| 20260906190621 | 77 | 147 | 8.0 | 23.0 | 0.00 | 0.00 | 0.00 | 29 | 1019.1 |
| 20260906185643 | 76 | 202 | 9.0 | 21.0 | 0.00 | 0.00 | 0.00 | 30 | 1019.1 |
| 20260906184617 | 77 | 165 | 8.0 | 17.0 | 0.00 | 0.00 | 0.00 | 29 | 1019.2 |
| 20260906183627 | 75 | 141 | 12.0 | 24.0 | 0.00 | 0.00 | 0.00 | 29 | 1019.3 |
| 20260906182637 | 75 | 219 | 11.0 | 21.0 | 0.00 | 0.00 | 0.00 | 29 | 1019.5 |
| 20260906181647 | 75 | 150 | 13.0 | 22.0 | 0.00 | 0.00 | 0.00 | 29 | 1019.4 |
| 20260906180626 | 75 | 196 | 10.0 | 20.0 | 0.00 | 0.00 | 0.00 | 29 | 1019.6 |
| 20260906175627 | 75 | 202 | 10.0 | 17.0 | 0.00 | 0.00 | 0.00 | 31 | 1019.8 |
| 20260906174617 | 75 | 163 | 11.0 | 17.0 | 0.00 | 0.00 | 0.00 | 30 | 1020.1 |
| 20260906173628 | 74 | 186 | 11.0 | 20.0 | 0.00 | 0.00 | 0.00 | 31 | 1020.1 |
| 20260906172638 | 74 | 155 | 12.0 | 23.0 | 0.00 | 0.00 | 0.00 | 30 | 1020.3 |
| 20260906171630 | 74 | 117 | 13.0 | 19.0 | 0.00 | 0.00 | 0.00 | 28 | 1020.3 |
| 20260906170619 | 73 | 192 | 15.0 | 21.0 | 0.00 | 0.00 | 0.00 | 29 | 1020.5 |
| 20260906165621 | 73 | 198 | 12.0 | 19.0 | 0.00 | 0.00 | 0.00 | 30 | 1020.4 |
| 20260906164613 | 73 | 192 | 12.0 | 20.0 | 0.00 | 0.00 | 0.00 | 31 | 1020.5 |
| 20260906163624 | 72 | 160 | 10.0 | 18.0 | 0.00 | 0.00 | 0.00 | 31 | 1020.4 |
| 20260906162634 | 72 | 159 | 10.0 | 19.0 | 0.00 | 0.00 | 0.00 | 31 | 1020.4 |
| 20260906161622 | 72 | 163 | 11.0 | 17.0 | 0.00 | 0.00 | 0.00 | 32 | 1020.5 |
| 20260906160617 | 72 | 170 | 11.0 | 21.0 | 0.00 | 0.00 | 0.00 | 33 | 1020.5 |
| 20260906155620 | 72 | 140 | 11.0 | 17.0 | 0.00 | 0.00 | 0.00 | 33 | 1020.6 |
| 20260906154631 | 71 | 215 | 11.0 | 19.0 | 0.00 | 0.00 | 0.00 | 33 | 1020.5 |
| 20260906153622 | 70 | 163 | 11.0 | 18.0 | 0.00 | 0.00 | 0.00 | 34 | 1020.6 |
| 20260906152614 | 70 | 213 | 13.0 | 22.0 | 0.00 | 0.00 | 0.00 | 34 | 1020.7 |
| 20260906151624 | 70 | 176 | 10.0 | 15.0 | 0.00 | 0.00 | 0.00 | 34 | 1020.5 |
| 20260906150612 | 70 | 182 | 12.0 | 17.0 | 0.00 | 0.00 | 0.00 | 33 | 1020.4 |
| 20260906145614 | 69 | 194 | 8.0 | 12.0 | 0.00 | 0.00 | 0.00 | 34 | 1020.3 |
| 20260906144629 | 66 | 185 | 4.0 | 6.0 | 0.00 | 0.00 | 0.00 | 39 | 1020.3 |
| 20260906143617 | 64 | 103 | 1.0 | 3.0 | 0.00 | 0.00 | 0.00 | 39 | 1020.2 |
| 20260906142626 | 62 | 176 | 1.0 | 5.0 | 0.00 | 0.00 | 0.00 | 41 | 1020.1 |
| 20260906141616 | 61 | 206 | 3.0 | 5.0 | 0.00 | 0.00 | 0.00 | 41 | 1020.1 |
| 20260906140620 | 60 | 198 | 3.0 | 6.0 | 0.00 | 0.00 | 0.00 | 41 | 1020.1 |
| 20260906135622 | 60 | 190 | 3.0 | 5.0 | 0.00 | 0.00 | 0.00 | 40 | 1019.9 |
| 20260906134612 | 61 | 172 | 4.0 | 6.0 | 0.00 | 0.00 | 0.00 | 38 | 1020.1 |
| 20260906133640 | 61 | 188 | 1.0 | 3.0 | 0.00 | 0.00 | 0.00 | 38 | 1019.8 |
| 20260906132614 | 60 | 116 | 1.0 | 5.0 | 0.00 | 0.00 | 0.00 | 38 | 1019.7 |
| 20260906131624 | 59 | 163 | 1.0 | 4.0 | 0.00 | 0.00 | 0.00 | 40 | 1019.6 |
| 20260906130626 | 59 | 165 | 2.0 | 4.0 | 0.00 | 0.00 | 0.00 | 39 | 1019.5 |
| 20260906125629 | 60 | 157 | 5.0 | 7.0 | 0.00 | 0.00 | 0.00 | 38 | 1019.7 |
| 20260906124624 | 60 | 181 | 4.0 | 6.0 | 0.00 | 0.00 | 0.00 | 37 | 1019.7 |
| 20260906123635 | 60 | 173 | 1.0 | 2.0 | 0.00 | 0.00 | 0.00 | 38 | 1019.7 |
| 20260906122624 | 60 | 155 | 0.0 | 1.0 | 0.00 | 0.00 | 0.00 | 38 | 1019.7 |
| 20260906121616 | 60 | 169 | 0.0 | 3.0 | 0.00 | 0.00 | 0.00 | 36 | 1019.5 |
| 20260906120631 | 60 | 165 | 3.0 | 4.0 | 0.00 | 0.00 | 0.00 | 36 | 1019.6 |
| 20260906115633 | 61 | 162 | 2.0 | 4.0 | 0.00 | 0.00 | 0.00 | 36 | 1019.6 |
| 20260906114623 | 61 | 84 | 1.0 | 4.0 | 0.00 | 0.00 | 0.00 | 35 | 1019.6 |
| 20260906113612 | 61 | 154 | 2.0 | 4.0 | 0.00 | 0.00 | 0.00 | 35 | 1019.6 |
| 20260906112626 | 61 | 165 | 3.0 | 6.0 | 0.00 | 0.00 | 0.00 | 35 | 1019.6 |
| 20260906111617 | 61 | 178 | 5.0 | 6.0 | 0.00 | 0.00 | 0.00 | 34 | 1019.6 |
| 20260906110627 | 61 | 166 | 4.0 | 6.0 | 0.00 | 0.00 | 0.00 | 35 | 1019.6 |
| 20260906105628 | 61 | 186 | 3.0 | 5.0 | 0.00 | 0.00 | 0.00 | 34 | 1019.7 |
| 20260906104622 | 62 | 172 | 2.0 | 6.0 | 0.00 | 0.00 | 0.00 | 34 | 1019.5 |
| 20260906103633 | 62 | 132 | 2.0 | 5.0 | 0.00 | 0.00 | 0.00 | 33 | 1019.5 |
| 20260906102622 | 62 | 163 | 2.0 | 7.0 | 0.00 | 0.00 | 0.00 | 33 | 1019.5 |
| 20260906101631 | 62 | 121 | 2.0 | 7.0 | 0.00 | 0.00 | 0.00 | 33 | 1019.4 |
| 20260906100625 | 62 | 109 | 3.0 | 6.0 | 0.00 | 0.00 | 0.00 | 33 | 1019.5 |
| 20260906095628 | 62 | 114 | 3.0 | 6.0 | 0.00 | 0.00 | 0.00 | 32 | 1019.3 |
| 20260906094618 | 62 | 153 | 1.0 | 4.0 | 0.00 | 0.00 | 0.00 | 33 | 1019.2 |
| 20260906093648 | 63 | 131 | 1.0 | 3.0 | 0.00 | 0.00 | 0.00 | 32 | 1019.3 |
| 20260906092620 | 63 | 180 | 1.0 | 4.0 | 0.00 | 0.00 | 0.00 | 32 | 1019.3 |
| 20260906091631 | 63 | 110 | 1.0 | 5.0 | 0.00 | 0.00 | 0.00 | 31 | 1019.3 |
| 20260906090620 | 63 | 157 | 1.0 | 5.0 | 0.00 | 0.00 | 0.00 | 31 | 1019.1 |
| 20260906085623 | 63 | 157 | 1.0 | 2.0 | 0.00 | 0.00 | 0.00 | 31 | 1019.1 |
| 20260906084637 | 63 | 146 | 0.0 | 3.0 | 0.00 | 0.00 | 0.00 | 30 | 1019.0 |
| 20260906083625 | 64 | 181 | 3.0 | 5.0 | 0.00 | 0.00 | 0.00 | 30 | 1019.0 |
| 20260906082616 | 65 | 158 | 2.0 | 4.0 | 0.00 | 0.00 | 0.00 | 29 | 1019.0 |
| 20260906081626 | 65 | 138 | 3.0 | 5.0 | 0.00 | 0.00 | 0.00 | 28 | 1019.1 |
| 20260906080630 | 65 | 157 | 4.0 | 7.0 | 0.00 | 0.00 | 0.00 | 28 | 1019.1 |
| 20260906075613 | 66 | 142 | 4.0 | 8.0 | 0.00 | 0.00 | 0.00 | 28 | 1019.2 |
| 20260906074624 | 65 | 167 | 4.0 | 9.0 | 0.00 | 0.00 | 0.00 | 29 | 1019.1 |
| 20260906073619 | 65 | 161 | 3.0 | 9.0 | 0.00 | 0.00 | 0.00 | 29 | 1019.1 |
| 20260906072628 | 65 | 147 | 2.0 | 6.0 | 0.00 | 0.00 | 0.00 | 28 | 1019.2 |
| 20260906071619 | 66 | 123 | 3.0 | 6.0 | 0.00 | 0.00 | 0.00 | 28 | 1019.1 |
| 20260906070621 | 66 | 155 | 3.0 | 7.0 | 0.00 | 0.00 | 0.00 | 28 | 1019.1 |
| 20260906065627 | 66 | 149 | 5.0 | 7.0 | 0.00 | 0.00 | 0.00 | 28 | 1019.1 |
| 20260906064617 | 66 | 178 | 5.0 | 8.0 | 0.00 | 0.00 | 0.00 | 28 | 1019.1 |
| 20260906063627 | 66 | 158 | 4.0 | 8.0 | 0.00 | 0.00 | 0.00 | 28 | 1019.0 |
| 20260906062618 | 66 | 175 | 4.0 | 6.0 | 0.00 | 0.00 | 0.00 | 28 | 1019.0 |
| 20260906061631 | 66 | 180 | 3.0 | 7.0 | 0.00 | 0.00 | 0.00 | 28 | 1019.0 |
| 20260906060627 | 68 | 193 | 3.0 | 9.0 | 0.00 | 0.00 | 0.00 | 27 | 1018.9 |
| 20260906055647 | 67 | 168 | 3.0 | 7.0 | 0.00 | 0.00 | 0.00 | 27 | 1018.8 |
| 20260906054617 | 67 | 182 | 4.0 | 8.0 | 0.00 | 0.00 | 0.00 | 28 | 1019.0 |
| 20260906053649 | 67 | 159 | 2.0 | 10.0 | 0.00 | 0.00 | 0.00 | 28 | 1019.0 |
| 20260906052623 | 66 | 179 | 4.0 | 7.0 | 0.00 | 0.00 | 0.00 | 29 | 1018.9 |
| 20260906051614 | 66 | 109 | 4.0 | 6.0 | 0.00 | 0.00 | 0.00 | 30 | 1018.9 |
| 20260906050625 | 66 | 187 | 2.0 | 6.0 | 0.00 | 0.00 | 0.00 | 29 | 1019.0 |
| 20260906045612 | 66 | 144 | 1.0 | 5.0 | 0.00 | 0.00 | 0.00 | 29 | 1019.0 |
| 20260906044623 | 66 | 121 | 1.0 | 4.0 | 0.00 | 0.00 | 0.00 | 30 | 1019.0 |
| 20260906043614 | 65 | 138 | 1.0 | 3.0 | 0.00 | 0.00 | 0.00 | 30 | 1019.0 |
| 20260906042625 | 65 | 164 | 1.0 | 5.0 | 0.00 | 0.00 | 0.00 | 31 | 1019.0 |
| 20260906041616 | 65 | 288 | 0.0 | 2.0 | 0.00 | 0.00 | 0.00 | 34 | 1019.0 |
| 20260906040631 | 65 | 80 | 0.0 | 2.0 | 0.00 | 0.00 | 0.00 | 30 | 1018.9 |
| 20260906035614 | 65 | 47 | 1.0 | 3.0 | 0.00 | 0.00 | 0.00 | 31 | 1019.0 |
| 20260906034645 | 64 | 18 | 2.0 | 5.0 | 0.00 | 0.00 | 0.00 | 33 | 1018.9 |
| 20260906033615 | 65 | 360 | 3.0 | 4.0 | 0.00 | 0.00 | 0.00 | 31 | 1018.8 |
| 20260906032631 | 66 | 9 | 3.0 | 5.0 | 0.00 | 0.00 | 0.00 | 33 | 1018.7 |
| 20260906031621 | 66 | 49 | 2.0 | 5.0 | 0.00 | 0.00 | 0.00 | 30 | 1018.7 |
| 20260906030633 | 67 | 13 | 3.0 | 6.0 | 0.00 | 0.00 | 0.00 | 31 | 1018.6 |
| 20260906025615 | 67 | 63 | 2.0 | 5.0 | 0.00 | 0.00 | 0.00 | 29 | 1018.6 |
| 20260906024630 | 67 | 42 | 3.0 | 5.0 | 0.00 | 0.00 | 0.00 | 28 | 1018.4 |
| 20260906023642 | 68 | 13 | 2.0 | 3.0 | 0.00 | 0.00 | 0.00 | 28 | 1018.3 |
| 20260906022612 | 68 | 38 | 4.0 | 5.0 | 0.00 | 0.00 | 0.00 | 29 | 1018.2 |
| 20260906021623 | 69 | 44 | 3.0 | 4.0 | 0.00 | 0.00 | 0.00 | 28 | 1018.3 |
| 20260906020627 | 70 | 32 | 1.0 | 3.0 | 0.00 | 0.00 | 0.00 | 28 | 1018.3 |
| 20260906015628 | 73 | 360 | 2.0 | 3.0 | 0.00 | 0.00 | 0.00 | 25 | 1018.2 |
| 20260906014618 | 74 | 113 | 1.0 | 2.0 | 0.00 | 0.00 | 0.00 | 23 | 1018.3 |
| 20260906013627 | 75 | 213 | 0.0 | 3.0 | 0.00 | 0.00 | 0.00 | 21 | 1018.4 |
| 20260906012623 | 75 | 224 | 2.0 | 3.0 | 0.00 | 0.00 | 0.00 | 21 | 1018.5 |
| 20260906011613 | 75 | 209 | 1.0 | 3.0 | 0.00 | 0.00 | 0.00 | 21 | 1018.7 |
| 20260906005620 | 76 | 229 | 2.0 | 6.0 | 0.00 | 0.00 | 0.00 | 21 | 1018.8 |
| 20260906004650 | 76 | 165 | 3.0 | 10.0 | 0.00 | 0.00 | 0.00 | 20 | 1018.8 |
| 20260906003623 | 76 | 181 | 5.0 | 7.0 | 0.00 | 0.00 | 0.00 | 21 | 1018.9 |
| 20260906002652 | 77 | 188 | 6.0 | 8.0 | 0.00 | 0.00 | 0.00 | 20 | 1018.9 |
| 20260906001621 | 77 | 193 | 5.0 | 9.0 | 0.00 | 0.00 | 0.00 | 20 | 1018.8 |
| 20260906000631 | 79 | 76 | 1.0 | 10.0 | 0.00 | 0.00 | 0.00 | 20 | 1019.0 |
| 20260905235639 | 79 | 93 | 6.0 | 14.0 | 0.00 | 0.00 | 0.00 | 19 | 1019.0 |
| 20260905234627 | 80 | 202 | 4.0 | 14.0 | 0.00 | 0.00 | 0.00 | 19 | 1018.9 |
| 20260905233617 | 79 | 194 | 8.0 | 12.0 | 0.00 | 0.00 | 0.00 | 20 | 1019.0 |